[[{"header":{"parameterUnit":"m.s-1","parameterCategory":1,"la1":30.2991,"la2":30.254,"lo1":-89.0895,"lo2":-89.0444,"dy":0.0017,"dx":0.0017,"nx":28,"ny":28,"refTime":"2024-10-12T21:00:00:Z","depth":0,"parameterNumber":2,"parameterNumberName":"U-component_of_WINDS"},"data":[0,0,0,0,0,0,0,0,0,0,0,0,0,0,0,0,0,0,0,0,0,0,0,0,0,0,0,0,0,0,0,0,0,0,0,0,0,0,0,0,0,0,0,0,0,0,0,0,0,0,0,0,0,0,0,0,0,0,5.2393,5.2395,0,5.2574,5.2576,5.2578,5.251,5.2506,5.2502,5.2498,5.2685,5.2694,5.2703,0,0,0,0,0,0,0,0,0,0,0,0,0,5.1989,5.1997,5.2392,5.2395,5.2397,5.2573,5.2576,5.2578,5.2511,5.2506,5.2501,5.2496,5.2682,5.2693,5.2703,0,0,0,0,0,0,0,0,0,0,0,0,0,5.2166,5.1999,5.2392,5.2385,5.2386,5.2573,5.2576,5.2579,5.2512,5.2506,5.2499,5.2494,5.2679,5.2692,5.2705,5.291,0,0,5.2745,5.2751,0,0,0,0,0,0,0,0,5.2156,5.2181,5.2383,5.2385,5.2387,5.2513,5.2502,5.269,5.2513,5.2464,5.2498,5.2491,5.2633,5.265,5.2697,5.2919,5.2927,5.2746,5.2754,5.276,5.2764,0,0,0,0,0,0,0,5.2144,5.2173,5.2464,5.2386,5.2389,5.2372,5.2391,5.2537,5.2581,5.2468,5.2463,5.2486,5.2633,5.2685,5.2701,5.293,5.2746,5.2758,5.2766,5.2771,5.3326,5.3333,0,0,0,0,0,0,5.2131,5.2163,5.2458,5.247,5.2254,5.2384,5.2405,5.2479,5.2579,5.2589,5.2491,5.2482,5.2665,5.2686,5.2707,5.2952,5.276,5.2772,5.278,5.332,5.3328,5.3335,0,0,0,0,0,0,5.2123,5.2158,5.2451,5.2315,5.2351,5.2398,5.2481,5.2486,5.2537,5.2597,5.2604,5.2536,5.2661,5.2689,5.286,5.2958,5.2778,5.279,5.3312,5.3322,5.3332,5.3445,0,0,0,0,0,0,5.2111,5.2155,5.2234,5.2318,5.2359,5.2601,5.2488,5.2494,5.256,5.255,5.2641,5.265,5.2658,5.284,5.2873,5.2973,5.2801,5.3303,5.3316,5.3328,5.3433,5.3458,5.348,0,0,0,0,0,5.2097,5.226,5.2239,5.2275,5.2458,5.2606,5.263,5.2636,5.2568,5.2647,5.2685,5.2647,5.2942,5.2858,5.2894,5.3,5.3297,5.3313,5.3327,5.3422,5.3453,5.3479,0,0,0,0,0,0,5.2188,5.2271,5.2248,5.2443,5.2518,5.2595,5.2695,5.2669,5.2765,5.2752,5.2756,5.2777,5.2952,5.2993,5.2898,5.3203,5.3109,5.3133,5.3169,5.3199,5.3222,5.3207,5.2812,0,0,0,0,0,5.2231,5.2344,5.241,5.2576,5.2615,5.2649,5.2713,5.2711,5.2789,5.2821,5.2871,5.2949,5.3059,5.3131,5.3236,5.3439,5.3456,5.3529,5.3552,5.3571,5.3591,5.3698,5.3731,5.3386,5.3385,5.3385,0,0,5.2321,5.238,5.2451,5.2596,5.2654,5.277,5.2676,5.2804,5.289,5.2841,5.3004,5.3044,5.3131,5.3317,5.3402,5.3357,5.369,5.3591,5.3605,5.3615,5.3717,5.375,5.3779,5.3396,5.3394,5.3392,0,0,5.2543,5.26,5.2742,5.2802,5.289,5.2911,5.2945,5.3026,5.305,5.3214,5.3178,5.3281,5.3471,5.3534,5.359,5.3834,5.3801,5.3868,5.3989,5.4094,5.4121,5.4145,5.4229,5.426,5.3888,5.3888,5.3888,0,5.2643,5.2817,5.2819,5.2949,5.3013,5.2972,5.3116,5.3174,5.3293,5.3337,5.3285,5.3521,5.3577,5.3776,5.3835,5.3883,5.3921,5.3857,5.4117,5.4141,5.4164,5.4244,5.4276,5.3895,5.3894,5.3894,5.3893,0,5.2934,5.3055,5.316,5.3273,5.3349,5.3486,5.3508,5.3585,5.3575,5.3602,5.3768,5.3833,5.3949,5.3997,5.399,5.4195,5.4164,5.4115,5.402,5.4204,5.4279,5.431,5.3906,5.3903,5.3901,5.3899,0,0,5.3219,5.333,5.3369,5.3418,5.3512,5.3606,5.374,5.3852,5.3916,5.3999,5.411,5.4271,5.4225,5.4289,5.4289,5.4381,5.4566,5.4321,5.4323,5.4362,5.4793,5.4828,5.4863,5.4546,5.4552,5.4557,5.4785,0,5.3446,5.3681,5.3686,5.39,5.4011,5.3973,5.4089,5.4159,5.4187,5.4285,5.4316,5.4429,5.4361,5.4399,5.4489,5.4525,5.4653,5.4509,5.4648,5.4653,5.4625,5.4903,5.4941,5.5153,5.4814,5.482,5.4823,0,5.3743,5.3833,5.4059,5.4133,5.418,5.4285,5.4386,5.4481,5.4558,5.4572,5.4643,5.4628,5.4764,5.4666,5.4852,5.4754,5.4812,5.4838,5.4846,5.4858,5.4748,5.492,5.5221,5.5252,5.487,5.4866,5.4863,0,5.3925,5.4103,5.426,5.4304,5.4397,5.447,5.4512,5.4584,5.465,5.4739,5.4781,5.4886,5.4943,5.5024,5.5037,5.4966,5.5223,5.5127,5.5237,5.5237,5.5292,5.5288,5.5604,5.5333,5.5332,5.5332,5.5331,0,5.4177,5.4316,5.4342,5.4439,5.4592,5.4597,5.4749,5.4785,5.4848,5.495,5.4925,5.5021,5.5034,5.5134,5.5146,5.5296,5.5323,5.5337,5.5338,5.5338,5.5336,5.5374,5.5359,5.534,5.5338,5.5337,5.5335,0,5.4406,5.443,5.4598,5.467,5.4692,5.4802,5.4863,5.4955,5.498,5.5109,5.514,5.5179,5.5294,5.5316,5.5453,5.5461,5.564,5.5627,5.5613,5.5611,5.5718,5.5707,5.6068,5.6115,5.5815,5.5818,5.5821,0,5.4564,5.467,5.4753,5.4819,5.4864,5.4971,5.5038,5.5046,5.5117,5.5211,5.5291,5.5404,5.5494,5.568,5.5721,5.5825,5.5813,5.5933,5.5829,5.5824,5.5812,5.5804,5.5814,5.5952,5.5955,5.5958,5.596,0,5.4842,5.4848,5.4945,5.5046,5.5125,5.5205,5.5281,5.5337,5.5355,5.5435,5.5552,5.5622,5.576,5.5872,5.5975,5.6018,5.5992,5.5993,5.6023,5.6023,5.6009,5.6015,5.5665,5.5984,5.5982,5.598,5.5978,5.5978,5.5039,5.513,5.5201,5.5309,5.5367,5.5438,5.5526,5.5561,5.5659,5.5771,5.577,5.5898,5.5971,5.6106,5.6156,5.6255,5.6217,5.6262,5.6273,5.6283,5.6291,5.5995,5.6274,5.6274,5.6273,5.6272,5.6272,0,5.5313,5.5357,5.5456,5.5562,5.5646,5.5614,5.5695,5.5768,5.588,5.595,5.6039,5.6172,5.6279,5.6328,5.6433,5.6503,5.6494,5.653,5.6524,5.6534,5.6321,5.6283,5.6536,5.6536,5.6536,5.6536,5.6536,5.6536,5.5465,5.5616,5.563,5.5808,5.5851,5.5975,5.6024,5.6088,5.6144,5.6293,5.6382,5.6412,5.6473,5.6582,5.6678,5.669,5.6729,5.677,5.6776,5.6576,5.6549,5.6524,5.6488,5.678,5.678,5.698,5.6982,5.6983]},{"header":{"parameterUnit":"m.s-1","parameterCategory":1,"la1":30.2991,"la2":30.254,"lo1":-89.0895,"lo2":-89.0444,"dy":0.0017,"dx":0.0017,"nx":28,"ny":28,"refTime":"2024-10-12T21:00:00:Z","depth":0,"parameterNumber":3,"parameterNumberName":"V-component_of_WINDS"},"data":[0,0,0,0,0,0,0,0,0,0,0,0,0,0,0,0,0,0,0,0,0,0,0,0,0,0,0,0,0,0,0,0,0,0,0,0,0,0,0,0,0,0,0,0,0,0,0,0,0,0,0,0,0,0,0,0,0,0,2.1628,2.1629,0,2.1741,2.1742,2.1743,2.1742,2.1741,2.1739,2.1738,2.1853,2.1857,2.1861,0,0,0,0,0,0,0,0,0,0,0,0,0,2.1409,2.1413,2.1628,2.1629,2.163,2.174,2.1742,2.1743,2.1743,2.1741,2.1739,2.1737,2.1851,2.1856,2.1862,0,0,0,0,0,0,0,0,0,0,0,0,0,2.1511,2.1414,2.1627,2.1643,2.1646,2.174,2.1742,2.1744,2.1743,2.1741,2.1739,2.1737,2.1849,2.1856,2.1862,2.1948,0,0,2.1883,2.1886,0,0,0,0,0,0,0,0,2.1505,2.1519,2.164,2.1642,2.1645,2.1725,2.1707,2.1812,2.1744,2.1706,2.1738,2.1735,2.1812,2.1821,2.1847,2.1953,2.1958,2.1883,2.1887,2.189,2.1892,0,0,0,0,0,0,0,2.1498,2.1514,2.1672,2.1641,2.1645,2.1644,2.1656,2.1727,2.177,2.1709,2.1709,2.1723,2.1813,2.1841,2.185,2.196,2.1883,2.1889,2.1893,2.1896,2.2138,2.2141,0,0,0,0,0,0,2.1488,2.1508,2.1669,2.1676,2.1568,2.165,2.1663,2.1702,2.1769,2.1777,2.1725,2.1722,2.1831,2.1842,2.1854,2.1957,2.189,2.1896,2.19,2.2136,2.2139,2.2142,0,0,0,0,0,0,2.1483,2.1502,2.1664,2.1592,2.1613,2.1656,2.1699,2.1705,2.1733,2.1781,2.1788,2.1746,2.183,2.1845,2.1924,2.1961,2.1899,2.1905,2.2133,2.2137,2.214,2.2165,0,0,0,0,0,0,2.1477,2.1501,2.1534,2.1593,2.1616,2.1733,2.1702,2.1709,2.1745,2.1743,2.1803,2.181,2.1829,2.1914,2.1931,2.1969,2.1911,2.213,2.2135,2.2139,2.2161,2.2169,2.2176,0,0,0,0,0,2.1469,2.1537,2.1536,2.1555,2.166,2.1735,2.1749,2.1769,2.1748,2.1781,2.1812,2.1808,2.1954,2.1922,2.1941,2.1982,2.2128,2.2133,2.2139,2.2158,2.2167,2.2176,0,0,0,0,0,0,2.1482,2.1545,2.1545,2.1634,2.1679,2.1735,2.1778,2.1779,2.1831,2.1828,2.185,2.1864,2.1942,2.197,2.1933,2.2067,2.2038,2.2048,2.2046,2.2056,2.2063,2.2055,2.1916,0,0,0,0,0,2.1495,2.1552,2.1604,2.1677,2.17,2.1735,2.1769,2.178,2.1828,2.1847,2.1884,2.193,2.1986,2.2022,2.2077,2.2165,2.2177,2.2202,2.2209,2.2215,2.2223,2.227,2.2281,2.216,2.216,2.216,0,0,2.1523,2.1565,2.1599,2.1681,2.1717,2.1775,2.1751,2.1814,2.1856,2.1857,2.1934,2.1961,2.2014,2.2098,2.2136,2.2123,2.2259,2.2222,2.2227,2.2231,2.2277,2.2288,2.2298,2.2164,2.2163,2.2162,0,0,2.1603,2.1641,2.1705,2.1742,2.1797,2.182,2.1835,2.1891,2.1909,2.1987,2.1988,2.2038,2.2135,2.2172,2.2203,2.2294,2.2292,2.2311,2.235,2.2395,2.2405,2.2413,2.2445,2.2456,2.2319,2.2319,2.2319,0,2.1631,2.1718,2.1738,2.18,2.1835,2.1838,2.1903,2.1937,2.2007,2.2031,2.2015,2.2135,2.2171,2.2262,2.2284,2.231,2.2327,2.2305,2.2402,2.2411,2.2419,2.2449,2.2461,2.2321,2.2321,2.232,2.232,0,2.1748,2.1809,2.1854,2.1921,2.1961,2.2024,2.2053,2.2091,2.2098,2.2122,2.2199,2.2242,2.2304,2.2327,2.2335,2.2419,2.2409,2.2397,2.2369,2.2432,2.2461,2.2472,2.2323,2.2323,2.2322,2.2322,0,0,2.1841,2.1918,2.1934,2.1963,2.2024,2.207,2.2132,2.2193,2.2224,2.2272,2.2324,2.2404,2.2394,2.2429,2.2441,2.2481,2.2548,2.2464,2.2466,2.2478,2.2641,2.2649,2.2663,2.2547,2.255,2.2552,2.2637,0,2.1927,2.2038,2.2057,2.2154,2.2209,2.2211,2.2265,2.2307,2.233,2.2379,2.2405,2.2461,2.2443,2.2464,2.2504,2.2532,2.2582,2.2526,2.2595,2.2597,2.2582,2.2678,2.2687,2.2766,2.2648,2.265,2.2651,0,2.2043,2.2093,2.2195,2.2246,2.227,2.2318,2.2374,2.2421,2.2468,2.2482,2.2521,2.2527,2.259,2.2559,2.2645,2.2607,2.2635,2.2653,2.2657,2.2664,2.2628,2.2687,2.2791,2.2803,2.267,2.2668,2.2667,0,2.2099,2.2192,2.2265,2.229,2.2352,2.2385,2.2412,2.2457,2.2492,2.254,2.2562,2.2618,2.2648,2.269,2.271,2.2686,2.2795,2.2765,2.2807,2.2807,2.283,2.2829,2.294,2.2849,2.2849,2.2849,2.2849,0,2.2193,2.2255,2.2291,2.2335,2.2404,2.2424,2.2492,2.2518,2.2557,2.2606,2.2611,2.2657,2.2682,2.2731,2.2747,2.2815,2.2829,2.2841,2.2845,2.2841,2.2839,2.286,2.2855,2.2852,2.2852,2.2851,2.285,0,2.2268,2.2294,2.2373,2.2425,2.2439,2.2487,2.2531,2.2573,2.2595,2.2657,2.2673,2.2707,2.2765,2.2789,2.286,2.2871,2.2949,2.2949,2.2933,2.2934,2.2974,2.297,2.3103,2.3121,2.3019,2.302,2.3021,0,2.2326,2.2374,2.2429,2.2462,2.249,2.2544,2.2579,2.26,2.2636,2.2691,2.2727,2.2784,2.2832,2.2923,2.2954,2.3007,2.3008,2.3051,2.3016,2.301,2.3008,2.3005,2.3009,2.3057,2.3058,2.3059,2.306,0,2.2426,2.2436,2.2486,2.2541,2.2582,2.2627,2.267,2.2696,2.2723,2.2763,2.2822,2.2858,2.293,2.2986,2.3041,2.3068,2.3068,2.307,2.3083,2.3079,2.3068,2.3073,2.295,2.3067,2.3067,2.3066,2.3066,2.3065,2.2493,2.2535,2.2581,2.2636,2.267,2.271,2.2752,2.2779,2.2829,2.2889,2.2897,2.296,2.3003,2.3077,2.3105,2.3154,2.3143,2.3161,2.3166,2.317,2.3172,2.306,2.3164,2.3164,2.3163,2.3163,2.3163,0,2.2593,2.2622,2.2672,2.2732,2.2775,2.2771,2.2818,2.2854,2.2909,2.295,2.2996,2.3062,2.3116,2.3151,2.3205,2.3236,2.3238,2.325,2.3248,2.3253,2.3179,2.3162,2.3248,2.3248,2.3248,2.3248,2.3248,2.3248,2.2649,2.272,2.2735,2.2821,2.2849,2.2911,2.2937,2.2973,2.3006,2.308,2.3125,2.3147,2.3184,2.3241,2.329,2.3298,2.3318,2.3331,2.3338,2.3268,2.3259,2.3251,2.3235,2.3335,2.3335,2.3409,2.341,2.341]}]]